Davenport, IA

4:57 AM CST on December 06, 2019 (GMT -0600)
Davenport Municipal

Weather History for KDVN - September, 2019

Change the Weather History Date:

Monday, September 16, 2019

  Actual Average Record
Temperature  
Mean Temperature 74 °F 63 °F  
Max Temperature 84 °F 75 °F 89 °F (1955)
Min Temperature 64 °F 51 °F 38 °F (2014)
Degree Days  
Heating Degree Days 0 4  
Month to date heating degree days 5 35  
Since 1 July heating degree days 7 49  
Cooling Degree Days 9 2  
Month to date cooling degree days 96 50  
Year to date cooling degree days 936 754  
Growing Degree Days 24 (Base 50)    
Moisture  
Dew Point 65 °F    
Average Humidity 74    
Maximum Humidity 97    
Minimum Humidity 51    
Precipitation  
Precipitation 0.00 in 0.10 in 1.17 in (1983)
Month to date precipitation 2.23 1.53  
Year to date precipitation 34.26 27.35  
Snow  
Snow 0.00 in - - ()
Month to date snowfall 0.0  
Since 1 July snowfall 0.0  
Since 1 September snowfall 0.0  
Snow Depth 0.00 in    
Sea Level Pressure  
Sea Level Pressure 30.09 in    
Wind  
Wind Speed 7 mph (ENE)    
Max Wind Speed 13 mph    
Max Gust Speed 17 mph    
Visibility 4 miles    
Events Fog    
T = Trace of Precipitation, MM = Missing Value Source: NWS Daily Summary

Daily Weather History Graph

Daily Weather History Graph

Search for Another Location

Airport or City:

Astronomy

Sep. 16, 2019 Rise Set
Actual Time 6:43 AM CDT 7:10 PM CDT
Civil Twilight 6:15 AM CDT 7:38 PM CDT
Nautical Twilight 5:42 AM CDT 8:10 PM CDT
Astronomical Twilight 5:09 AM CDT 8:44 PM CDT
Moon 8:43 PM CDT (9/16) 8:51 AM CDT (9/16)
Length of Visible Light 13h 22m
Length of Day
12h 26m
Waning Gibbous, 94% of the Moon is Illuminated
Sep 16
Waning Gibbous
Sep 21
Last Quarter
Sep 28
New
Oct 5
First Quarter
Oct 13
Full

Hourly Weather History & Observations

Time (CDT) Temp. Heat Index Dew Point Humidity Pressure Visibility Wind Dir Wind Speed Gust Speed Precip Events Conditions
12:11 AM 70.0 °F - 68.0 °F 93% 30.06 in 2.0 mi North 3.5 mph - N/A   Clear
12:52 AM 69.1 °F - 66.9 °F 93% 30.04 in 2.0 mi NNE 4.6 mph - N/A   Clear
1:21 AM 68.0 °F - 66.0 °F 93% 30.07 in 0.8 mi Calm Calm - N/A   Clear
1:36 AM 68.0 °F - 64.9 °F 90% 30.07 in 1.8 mi Calm Calm - N/A   Clear
1:43 AM 69.1 °F - 66.9 °F 93% 30.07 in 2.5 mi NE 4.6 mph - N/A   Clear
1:50 AM 69.8 °F - 68.0 °F 94% 30.07 in 3.0 mi Calm Calm - N/A   Clear
1:52 AM 70.0 °F - 68.0 °F 93% 30.05 in 3.0 mi NNE 3.5 mph - N/A   Clear
2:04 AM 70.0 °F - 68.0 °F 93% 30.07 in 2.5 mi NNE 5.8 mph - N/A   Clear
2:20 AM 70.0 °F - 68.0 °F 93% 30.07 in 3.0 mi NNE 5.8 mph - N/A   Clear
2:52 AM 70.0 °F - 68.0 °F 93% 30.05 in 4.0 mi NE 5.8 mph - N/A   Clear
3:52 AM 69.1 °F - 66.9 °F 93% 30.06 in 3.0 mi NE 5.8 mph - N/A   Clear
4:52 AM 68.0 °F - 66.0 °F 93% 30.06 in 5.0 mi NE 5.8 mph - N/A   Clear
5:20 AM 66.9 °F - 64.9 °F 93% 30.09 in 2.5 mi NE 6.9 mph - N/A   Clear
5:52 AM 66.0 °F - 64.9 °F 96% 30.08 in 2.0 mi NE 5.8 mph - N/A   Partly Cloudy
5:59 AM 66.0 °F - 64.0 °F 93% 30.10 in 1.0 mi NE 5.8 mph - N/A   Mist
6:06 AM 66.0 °F - 64.0 °F 93% 30.11 in 0.5 mi NE 4.6 mph - N/A Fog Fog
6:14 AM 64.9 °F - 64.0 °F 97% 30.11 in 0.2 mi NE 3.5 mph - N/A Fog Fog
6:42 AM 64.0 °F - 63.0 °F 96% 30.12 in 0.5 mi NE 6.9 mph - N/A Fog Fog
6:52 AM 64.0 °F - 63.0 °F 96% 30.10 in 0.5 mi NE 5.8 mph - N/A Fog Fog
7:00 AM 64.0 °F - 63.0 °F 96% 30.12 in 0.2 mi NE 6.9 mph - N/A Fog Fog
7:07 AM 64.0 °F - 63.0 °F 96% 30.12 in 0.5 mi NE 5.8 mph - N/A Fog Fog
7:17 AM 64.0 °F - 63.0 °F 96% 30.13 in 0.2 mi NE 4.6 mph - N/A Fog Fog
7:24 AM 64.9 °F - 63.0 °F 93% 30.13 in 0.2 mi ENE 4.6 mph - N/A Fog Fog
7:52 AM 66.0 °F - 64.0 °F 93% 30.12 in 0.2 mi ENE 5.8 mph - N/A Fog Fog
8:14 AM 66.9 °F - 66.0 °F 97% 30.14 in 1.0 mi East 4.6 mph - N/A   Mist
8:22 AM 68.0 °F - 66.0 °F 93% 30.15 in 3.0 mi East 5.8 mph - N/A   Mostly Cloudy
8:37 AM 69.1 °F - 68.0 °F 96% 30.15 in 4.0 mi North - - N/A   Scattered Clouds
8:52 AM 70.0 °F - 66.9 °F 90% 30.13 in 5.0 mi East 4.6 mph - N/A   Partly Cloudy
9:52 AM 73.9 °F - 68.0 °F 82% 30.13 in 10.0 mi East 9.2 mph - N/A   Clear
10:52 AM 78.1 °F - 66.0 °F 66% 30.13 in 10.0 mi East 9.2 mph - N/A   Clear
11:52 AM 81.0 °F 82.5 °F 64.0 °F 56% 30.12 in 10.0 mi East 10.4 mph - N/A   Clear
12:52 PM 81.0 °F 82.7 °F 64.9 °F 58% 30.11 in 10.0 mi ESE 9.2 mph - N/A   Clear
1:52 PM 82.9 °F 84.6 °F 64.9 °F 54% 30.09 in - ESE 5.8 mph - N/A   Clear
2:52 PM - - - N/A% 30.11 in - North - - N/A   Unknown
3:52 PM 84.0 °F 85.8 °F 64.9 °F 53% 30.07 in 10.0 mi East 8.1 mph - N/A   Clear
4:52 PM 82.0 °F 83.1 °F 63.0 °F 52% 30.07 in 10.0 mi East 6.9 mph - N/A   Clear
5:52 PM 80.1 °F 81.7 °F 64.0 °F 58% 30.07 in 10.0 mi East 10.4 mph - N/A   Clear
6:52 PM 75.0 °F - 66.0 °F 73% 30.08 in 10.0 mi ESE 5.8 mph - N/A   Clear
7:52 PM 72.0 °F - 66.0 °F 81% 30.09 in 10.0 mi SE 5.8 mph - N/A   Clear
8:52 PM 70.0 °F - 66.0 °F 87% 30.09 in 10.0 mi SSE 5.8 mph - N/A   Clear
9:52 PM 70.0 °F - 64.9 °F 84% 30.09 in 10.0 mi SE 6.9 mph - N/A   Clear
10:52 PM 69.1 °F - 64.9 °F 87% 30.09 in 10.0 mi SSE 5.8 mph - N/A   Clear
11:52 PM 68.0 °F - 64.0 °F 87% 30.10 in 10.0 mi ESE 4.6 mph - N/A   Clear